Regional Weather Roundup
Issued by NWS

Home | Current Version | Previous Version | Graphics & Text | Print | Product List | Glossary On
Versions: 1 2 3 4 5 6 7 8 9 10 11 12 13 14 15 16 17 18 19 20 21 22 23 24 25 26 27 28 29 30 31 32 33 34 35 36 37 38 39 40 41 42 43 44 45 46 47 48 49 50
000
ASUS43 KOAX 020110
RWRNE

WEATHER ROUNDUP FOR NEBRASKA
NATIONAL WEATHER SERVICE OMAHA NE
800 PM CDT WED JUL 01 2015

NOTES: SATELLITE DATA IS BEING USED TO AUGMENT CLOUD COVER ABOVE
       12000 FEET.
       "FAIR" INDICATES FEW OR NO CLOUDS BELOW 12,000 FEET WITH NO
       SIGNIFICANT WEATHER AND/OR OBSTRUCTIONS TO VISIBILITY.

  * THESE STATIONS DO NOT REPORT WEATHER SUCH AS RAIN...SNOW OR FOG.

NEZ001>004-019>022-054>056-020200-
NEBRASKA PANHANDLE

CITY           SKY/WX    TMP DP  RH WIND       PRES   REMARKS
SCOTTSBLUFF    CLOUDY    86  55  34 SE10      29.97F THUNDER
ALLIANCE       SUNNY     82  59  45 E9        30.00R
CHADRON        SUNNY     82  61  48 NE12      29.97S
KIMBALL          N/A    N/A N/A N/A MISG        N/A
SIDNEY         PTSUNNY   83  55  38 E9        30.04R
$$

NEZ057>060-069>072-079>082-020200-
SOUTHWEST NEBRASKA

CITY           SKY/WX    TMP DP  RH WIND       PRES   REMARKS
NORTH PLATTE   SUNNY     85  56  37 N7        29.93R
IMPERIAL       MOSUNNY   86  58  38 E7        29.96R
LEXINGTON      MOSUNNY   86  67  52 E7        29.90S
MCCOOK         MOSUNNY   89  66  46 E8        29.91R HX  91
OGALLALA       PTSUNNY   85  57  39 NE7       29.97R
$$

NEZ005>010-023>029-035>040-094-020200-
NORTH CENTRAL NEBRASKA

CITY           SKY/WX    TMP DP  RH WIND       PRES   REMARKS
VALENTINE      SUNNY     79  65  62 N13       29.94R
AINSWORTH      SUNNY     81  67  63 NE7       29.94R
BROKEN BOW     SUNNY     83  70  64 E7        29.90S
O`NEILL        PTSUNNY   79  69  70 NE8       29.91R
THEDFORD       SUNNY     84  63  49 N6        29.96R
$$

NEZ041-046>049-061>064-073>077-083>087-020200-
SOUTH CENTRAL NEBRASKA

CITY           SKY/WX    TMP DP  RH WIND       PRES   REMARKS
GRAND ISLAND   SUNNY     83  68  60 NE7       29.89R
AURORA         SUNNY     82  69  63 CALM      29.88S
HASTINGS       SUNNY     83  69  62 NE7       29.89R
HEBRON         SUNNY     84  68  58 E7        29.85R
HOLDREGE       SUNNY     82  67  60 E7        29.90S
KEARNEY *      SUNNY     82  68  61 E8        29.90R
YORK           SUNNY     82  70  65 E5        29.88R
$$

NEZ011>018-030>034-042>045-020200-
NORTHEAST NEBRASKA

CITY           SKY/WX    TMP DP  RH WIND       PRES   REMARKS
NORFOLK        PTSUNNY   77  67  71 E10       29.90R
ALBION         MOSUNNY   79  67  66 E8        29.89S
BLAIR          PTCLDY    76  66  70 NE12      29.89S
COLUMBUS *     SUNNY    N/A N/A N/A E12       29.91
FREMONT        CLEAR     79  65  63 NE10      29.89R
TEKAMAH        CLOUDY    77  68  73 E9        29.89R
WAYNE          CLOUDY    74  68  81 E9        29.92S HAZE
$$

NEZ050>053-065>068-078-088>093-020200-
SOUTHEAST NEBRASKA

CITY           SKY/WX    TMP DP  RH WIND       PRES   REMARKS
LINCOLN        PTCLDY    81  70  69 E12       29.86R
OMAHA EPPLEY   MOCLDY    78  68  71 E12       29.88R
BEATRICE       CLEAR     83  70  64 NE3       29.84S
FALLS CITY     CLEAR     82  72  71 E5        29.81F
NEBRASKA CITY  MOCLDY    79  67  67 E12       29.85S
PLATTSMOUTH    MOCLDY    78  67  69 NE6       29.87R
$$

NEZ044-045-051>053-067-020200-
OMAHA AREA

CITY           SKY/WX    TMP DP  RH WIND       PRES   REMARKS
OMAHA EPPLEY   MOCLDY    78  68  71 E12       29.88R
BLAIR          PTCLDY    76  66  70 NE12      29.89S
FREMONT        CLEAR     79  65  63 NE10      29.89R
MILLARD        CLOUDY    80  69  70 E9        29.87R
OFFUTT AFB     MOCLDY    78  69  74 NE9       29.87R
PLATTSMOUTH    MOCLDY    78  67  69 NE6       29.87R
WAHOO          FAIR      80  68  67 NE13      29.87S
$$



USA.gov is the U.S. government's official web portal to all federal, state and local government web resources and services.